Hourly Weather Roundup
Issued by NWS Central Illinois

Home | Current Version | Previous Version | Text Only | Print | Product List | Glossary On
Versions: 1 2 3 4 5 6 7 8 9 10 11 12 13 14 15 16 17 18 19 20 21 22 23 24 25 26 27 28 29 30 31 32 33 34 35 36 37 38 39 40 41 42 43 44 45 46 47 48 49 50
905
NZUS43 KILX 200810
HWRILX

Area Weather Roundup
National Weather Service Lincoln IL
200 AM CST MON NOV 20 2017

NOTE:  "FAIR" indicates few or no clouds below 12,000 feet, with
       no sigificant weather and/or obstructions to visibility.


CITY           SKY/WX    TMP DP  RH WIND       PRES   REMARKS
Bloomington    CLOUDY    32  24  72 SW13      30.07F WCI  22
Champaign      CLOUDY    30  24  78 S10       30.11F WCI  21
Danville       CLOUDY    28  24  83 S5        30.09F WCI  23
Decatur        PTCLDY    31  23  72 SW12      30.11F WCI  22
Effingham      CLEAR     29  23  78 S5        30.18F WCI  24
Flora          CLEAR     27  23  84 S6        30.16S WCI  21
Galesburg      CLOUDY    33  26  77 S12G18    30.01F WCI  24
Jacksonville   CLEAR     33  23  65 S12       30.08F WCI  25
Lacon          PTCLDY    34  23  65 SW8       30.03F WCI  27
Lawrenceville  CLOUDY    28  22  78 S6        30.21R WCI  22
Litchfield     CLEAR     30  24  78 S8        30.14S WCI  22
$$


CITY           SKY/WX    TMP DP  RH WIND       PRES   REMARKS
Lincoln        PTCLDY    32  26  77 S6        30.09F WCI  26
Macomb         CLEAR     34  26  71 S12       30.05S WCI  25
Mattoon        CLEAR     31  22  69 S7        30.13F WCI  24
Mt Carmel AP   PTCLDY    27  22  84 CALM      30.21R
Olney-Noble AP CLEAR     27  21  78 S3        30.20S
Paris AP       CLOUDY    29  25  82 S8        30.15F WCI  22
Peoria         CLOUDY    31  24  75 S10       30.05F WCI  22
Pontiac        CLOUDY    33  25  73 S12       30.06F WCI  24
Rantoul        CLOUDY    32  26  78 SW7       30.10F WCI  26
Robinson       CLOUDY    24  21  87 CALM      30.21R
Springfield    CLEAR     34  24  67 S13       30.10F WCI  25
Taylorville    CLOUDY    30  23  75 S10       30.13F WCI  21
$$

...REGIONAL REPORTS...


CITY           SKY/WX    TMP DP  RH WIND       PRES   REMARKS
Chicago O`Hare CLOUDY    31  22  69 SW8       30.00F WCI  23
Kankakee       PTCLDY    30  23  74 S3        30.07F
Moline         CLOUDY    35  24  64 SW7       29.97F WCI  29
Mount Sterling CLEAR     36  25  64 SW13G20   30.04F WCI  27
Mount Vernon   CLEAR     22  21  96 CALM      30.20F
Pittsfield     CLOUDY    34  24  67 S10       30.09F WCI  26
Quincy         CLEAR     34  25  69 S13       30.05F WCI  25
Rockford       CLOUDY    29  23  78 S8        30.00F WCI  21
$$


CITY           SKY/WX    TMP DP  RH WIND       PRES   REMARKS
Burlington     CLEAR     35  27  72 S13G25    29.99F WCI  26
Cedar Rapids   CLOUDY    32  27  81 S10       29.91F WCI  24
Des Moines     PTCLDY    41  27  57 SW15      29.89F WCI  33
Kirksville     CLOUDY    40  30  67 SW12      30.01F WCI  33
Ottumwa        CLOUDY    41  28  60 SW16      29.93F WCI  33
St Louis       CLEAR     37  22  54 S9        30.14F WCI  30
$$


CITY           SKY/WX    TMP DP  RH WIND       PRES   REMARKS
Terre Haute    CLOUDY    27  21  78 CALM      30.18R
Evansville     CLEAR     26  24  92 SW6       30.23S WCI  19
Indianapolis   CLOUDY    25  20  81 SW5       30.16F WCI  19
Lafayette      CLOUDY    28  23  81 SW6       30.12F WCI  22
Madison        CLEAR     33  24  69 S9        29.90F WCI  25
Milwaukee      PTCLDY    31  23  72 SW10      29.95F WCI  22
$$






USA.gov is the U.S. government's official web portal to all federal, state and local government web resources and services.